Hourly Data Report for October 16, 2015

All times are specified in Local Standard Time (LST). Add 1 hour to adjust for Daylight Saving Time where and when it is observed.

CAPE DORSET A
NUNAVUT

64°13'49.000" N
76°31'30.000" W
48.20 m
2400637
71366
YTE

Download Data

Hourly Data (October 2015)
Hourly Data Report for October 16, 2015
Temp Definition
°C
Dew Point Temp Definition
°C
Rel Hum Definition
%
Wind Dir Definition
10's deg

Wind Spd Definition
km/h
Visibility Definition
km
Stn Press Definition
kPa
Hmdx Definition


Wind Chill Definition


Weather Definition


TIME
00:00 Legend Double Dagger -5.6 -8.4 81 27 28 16.1 100.22   -14 LegendNANA
01:00 Legend Double Dagger -5.6 -8.2 82 28 24 16.1 100.27   -13 LegendNANA
02:00 Legend Double Dagger -5.8 -8.5 81 30 26 16.1 100.28   -14 LegendNANA
03:00 Legend Double Dagger -5.8 -8.2 84 29 22 16.1 100.31   -13 Snow
04:00 Legend Double Dagger -5.9 -7.4 90 30 21 16.1 100.32   -13 Snow
05:00 Legend Double Dagger -6.1 -8.8 81 29 30 16.1 100.34   -14 LegendNANA
06:00 Legend Double Dagger -6.0 -8.8 81 29 24 16.1 100.34   -13 LegendNANA
07:00 Legend Double Dagger -6.1 -9.0 80 28 21 16.1 100.36   -13 Snow
08:00 Legend Double Dagger -6.4 -9.6 78 27 21 16.1 100.38   -13 Snow
09:00 Legend Double Dagger -6.5 -9.6 79 26 13 16.1 100.38   -12 Snow
10:00 Legend Double Dagger -6.3 -9.3 80 24 13 16.1 100.36   -12 Snow
11:00 Legend Double Dagger -5.9 -9.6 75 28 21 16.1 100.33   -13 Snow
12:00 Legend Double Dagger -5.9 -9.1 78 29 18 16.1 100.35   -12 Snow
13:00 Legend Double Dagger -5.9 -9.2 78 29 26 16.1 100.35   -14 Snow
14:00 Legend Double Dagger -6.1 -9.7 76 28 18 16.1 100.36   -13 Snow
15:00 Legend Double Dagger -6.1 -9.2 79 29 17 16.1 100.36   -12 Snow
16:00 Legend Double Dagger -5.9 -9.0 79 28 17 16.1 100.37   -12 Snow
17:00 Legend Double Dagger -6.1 -8.5 83 26 17 16.1 100.37   -12 Snow
18:00 Legend Double Dagger -6.3 -7.7 90 25 21 4.8 100.35   -13 Snow
19:00 Legend Double Dagger -6.3 -8.0 88 25 18 16.1 100.34   -13 Snow
20:00 Legend Double Dagger -6.4 -8.2 87 25 18 12.9 100.32   -13 Snow
21:00 Legend Double Dagger -6.2 -8.2 86 26 21 16.1 100.29   -13 Snow
22:00 Legend Double Dagger -6.8 -8.9 85 30 18 16.1 100.28   -13 LegendNANA
23:00 Legend Double Dagger -7.2 -10.2 80 30 11 16.1 100.28   -12 Snow

Notes on Data Quality.

Legend

  • E = Estimated
  • M = Missing
  • NA = Not Available
  • ‡ = Partner data that is not subject to review by the National Climate Archives
Date modified: